[[[{"header":{"parameterUnit":"kt","parameterCategory":2,"dx":1,"dy":1,"la1":30.253999710083008,"la2":30.299108505249023,"lo1":-89.0895004272461,"lo2":-89.04439544677734,"nx":28,"ny":28,"refTime":"2022-11-01T21:00:00:Z","depth":0,"parameterNumber":1,"parameterNumberName":"U-component_of_WINDS"},"data":[-2.9584,-2.9634,-2.9635,-2.9693,-2.9703,-2.9743,-2.9757,-2.9776,-2.9791,-2.9839,-2.9867,-2.9872,-2.9887,-2.992,-2.995,-2.9952,-2.9964,-2.9983,-2.9982,-2.9898,-2.9887,-2.9876,-2.9863,-2.9986,-2.9986,-3.0067,-3.0068,-3.0068,-2.9526,-2.9537,-2.9568,-2.9597,-2.9624,-2.9607,-2.9629,-2.9652,-2.9688,-2.9706,-2.9733,-2.9775,-2.9808,-2.9817,-2.9848,-2.9873,-2.9865,-2.9881,-2.9878,-2.9881,-2.9792,-2.9779,-2.9886,-2.9886,-2.9886,-2.9886,-2.9886,-2.9886,-2.9421,-2.9452,-2.9469,-2.9502,-2.9517,-2.9537,-2.9565,-2.9571,-2.96,-2.9633,-2.9627,-2.9667,-2.9685,-2.9723,-2.9735,-2.9767,-2.9749,-2.9766,-2.977,-2.9773,-2.9778,-2.9662,-2.9772,-2.9772,-2.9772,-2.9772,-2.9771,0,-2.9344,-2.9342,-2.937,-2.9399,-2.9423,-2.9445,-2.9465,-2.9483,-2.9477,-2.9502,-2.9538,-2.9558,-2.9599,-2.9632,-2.9661,-2.967,-2.9653,-2.9651,-2.9663,-2.9665,-2.9665,-2.9665,-2.952,-2.9647,-2.9646,-2.9645,-2.9645,-2.9644,-2.9237,-2.9272,-2.9289,-2.9309,-2.9319,-2.9352,-2.9371,-2.9363,-2.9384,-2.9407,-2.9434,-2.9468,-2.9493,-2.9551,-2.9555,-2.9585,-2.9576,-2.9625,-2.9581,-2.9583,-2.9576,-2.9574,-2.9577,-2.9633,-2.9635,-2.9636,-2.9637,0,-2.9177,-2.9175,-2.9228,-2.9241,-2.9245,-2.9282,-2.9293,-2.9323,-2.9324,-2.9364,-2.9373,-2.9374,-2.9409,-2.9405,-2.9444,-2.9441,-2.9503,-2.9495,-2.9498,-2.9495,-2.9538,-2.9534,-2.9678,-2.9696,-2.957,-2.9571,-2.9572,0,-2.9084,-2.913,-2.9124,-2.9154,-2.9206,-2.9195,-2.9246,-2.9251,-2.9265,-2.9296,-2.9276,-2.9307,-2.9296,-2.9327,-2.9322,-2.9372,-2.938,-2.938,-2.9378,-2.9381,-2.9381,-2.939,-2.9383,-2.9372,-2.9371,-2.9371,-2.937,0,-2.8988,-2.9038,-2.9089,-2.9099,-2.9116,-2.914,-2.9149,-2.9163,-2.9182,-2.9205,-2.9217,-2.9245,-2.926,-2.9283,-2.9276,-2.9246,-2.9337,-2.9295,-2.9337,-2.9338,-2.9356,-2.9355,-2.9485,-2.9369,-2.9369,-2.9369,-2.9369,0,-2.8911,-2.8934,-2.9008,-2.9021,-2.9034,-2.9068,-2.9094,-2.9121,-2.9138,-2.9137,-2.9155,-2.914,-2.9183,-2.9141,-2.92,-2.9163,-2.918,-2.9184,-2.9187,-2.9189,-2.9141,-2.9214,-2.934,-2.9352,-2.9193,-2.9192,-2.9191,0,-2.8803,-2.8875,-2.8865,-2.8935,-2.8967,-2.8941,-2.8978,-2.8993,-2.8994,-2.9022,-2.9023,-2.9055,-2.9023,-2.9031,-2.9062,-2.9064,-2.9113,-2.9058,-2.9098,-2.91,-2.9094,-2.921,-2.9228,-2.9313,-2.9172,-2.9174,-2.9175,0,-2.8717,-2.8735,-2.8748,-2.8759,-2.8776,-2.8803,-2.8845,-2.8874,-2.8893,-2.8911,-2.8946,-2.8991,-2.8969,-2.8983,-2.8973,-2.9005,-2.908,-2.8976,-2.8976,-2.8994,-2.9162,-2.918,-2.9194,-2.9066,-2.9068,-2.907,-2.916,0,-2.86,-2.8635,-2.867,-2.8695,-2.8715,-2.8757,-2.875,-2.8772,-2.876,-2.8759,-2.8811,-2.882,-2.8849,-2.8863,-2.8851,-2.8925,-2.8912,-2.8887,-2.8844,-2.892,-2.895,-2.8962,-2.88,-2.8799,-2.8798,-2.8797,0,0,-2.8496,-2.8545,-2.8531,-2.8571,-2.8586,-2.8556,-2.8603,-2.8614,-2.8638,-2.865,-2.8626,-2.869,-2.8698,-2.8761,-2.8785,-2.8796,-2.8809,-2.8782,-2.8884,-2.8894,-2.8903,-2.8934,-2.8947,-2.8795,-2.8795,-2.8794,-2.8794,0,-2.8451,-2.846,-2.8505,-2.8517,-2.8532,-2.8529,-2.854,-2.855,-2.8551,-2.8601,-2.8574,-2.8604,-2.8655,-2.8667,-2.868,-2.8775,-2.8752,-2.8784,-2.8837,-2.8873,-2.8884,-2.8894,-2.8928,-2.894,-2.8791,-2.8791,-2.8792,0,-2.8364,-2.8372,-2.8392,-2.8425,-2.8435,-2.8469,-2.8422,-2.8459,-2.8484,-2.8448,-2.8497,-2.8501,-2.8517,-2.8577,-2.8604,-2.8582,-2.8702,-2.8662,-2.8669,-2.8671,-2.8706,-2.8719,-2.8731,-2.8573,-2.8572,-2.8572,0,0,-2.8326,-2.8358,-2.8361,-2.8415,-2.8423,-2.8417,-2.8434,-2.8422,-2.8436,-2.8442,-2.8446,-2.8461,-2.849,-2.851,-2.8537,-2.8604,-2.8606,-2.8636,-2.8646,-2.8655,-2.8661,-2.8698,-2.8711,-2.8569,-2.8569,-2.8569,0,0,-2.8308,-2.8313,-2.8298,-2.8359,-2.8373,-2.8379,-2.8413,-2.8394,-2.8417,-2.841,-2.8393,-2.8396,-2.8452,-2.8457,-2.8421,-2.8521,-2.8479,-2.8487,-2.8515,-2.8528,-2.8538,-2.8535,-2.8373,0,0,0,0,0,-2.8256,-2.8313,-2.8299,-2.8307,-2.8348,-2.8388,-2.8393,-2.8379,-2.835,-2.8376,-2.8377,-2.8352,-2.8434,-2.8402,-2.8411,-2.8451,-2.8533,-2.854,-2.8546,-2.8598,-2.8612,-2.8623,0,0,0,0,0,0,-2.826,-2.8271,-2.8297,-2.8306,-2.8315,-2.8385,-2.8332,-2.833,-2.8346,-2.8341,-2.8353,-2.8352,-2.8341,-2.8396,-2.8405,-2.8442,-2.837,-2.8536,-2.8541,-2.8546,-2.8603,-2.8614,-2.8623,0,0,0,0,0,-2.8262,-2.8271,-2.8339,-2.8305,-2.8313,-2.8308,-2.833,-2.8328,-2.834,-2.834,-2.8339,-2.8328,-2.8343,-2.8349,-2.8401,-2.8439,-2.8364,-2.8368,-2.8539,-2.8544,-2.8547,-2.8608,0,0,0,0,0,0,-2.8264,-2.8269,-2.834,-2.8342,-2.8282,-2.8304,-2.8307,-2.8326,-2.8338,-2.8337,-2.8315,-2.831,-2.8345,-2.8349,-2.8354,-2.8439,-2.8359,-2.8363,-2.8365,-2.8543,-2.8546,-2.8549,0,0,0,0,0,0,-2.8265,-2.8271,-2.8341,-2.8313,-2.8312,-2.83,-2.8303,-2.8345,-2.8338,-2.8312,-2.8308,-2.8313,-2.8337,-2.8349,-2.8353,-2.8419,-2.8356,-2.8359,-2.8361,-2.8362,-2.8545,-2.8548,0,0,0,0,0,0,-2.8267,-2.8273,-2.8312,-2.8311,-2.831,-2.833,-2.8337,-2.8379,-2.8314,-2.8312,-2.8308,-2.8305,-2.8338,-2.8342,-2.8353,-2.8417,-2.8419,-2.8356,-2.8358,-2.8359,-2.836,0,0,0,0,0,0,0,-2.8269,-2.8234,-2.8329,-2.831,-2.8309,-2.836,-2.836,-2.8361,-2.8314,-2.8311,-2.8309,-2.8306,-2.8338,-2.8341,-2.8345,-2.8416,0,0,-2.8355,-2.8357,0,0,0,0,0,0,0,0,-2.8231,-2.8234,-2.8329,-2.833,-2.833,-2.836,-2.836,-2.8361,-2.8313,-2.8311,-2.8309,-2.8307,-2.8339,-2.8341,-2.8344,0,0,0,0,0,0,0,0,0,0,0,0,0,0,0,-2.8329,-2.833,0,-2.836,-2.836,-2.836,-2.8313,-2.8311,-2.831,-2.8308,-2.8339,-2.8342,-2.8344,0,0,0,0,0,0,0,0,0,0,0,0,0,0,0,0,0,0,0,0,0,0,0,0,0,0,0,0,0,0,0,0,0,0,0,0,0,0,0,0,0,0,0,0,0,0,0,0,0,0,0,0,0,0,0,0,0,0,0,0,0,0,0,0,0,0,0,0,0]}],[{"header":{"parameterUnit":"kt","parameterCategory":2,"dx":1,"dy":1,"la1":30.253999710083008,"la2":30.299108505249023,"lo1":-89.0895004272461,"lo2":-89.04439544677734,"nx":28,"ny":28,"refTime":"2022-11-01T21:00:00:Z","depth":0,"parameterNumber":2,"parameterNumberName":"V-component_of_WINDS"},"data":[-4.107,-4.1137,-4.1156,-4.1242,-4.1273,-4.1334,-4.1362,-4.1399,-4.1433,-4.1507,-4.1553,-4.1577,-4.1618,-4.1675,-4.1725,-4.1734,-4.1754,-4.1764,-4.1774,-4.1711,-4.1703,-4.1696,-4.1681,-4.1768,-4.1769,-4.1836,-4.1837,-4.1838,-4.1022,-4.1054,-4.1104,-4.1166,-4.121,-4.1211,-4.1259,-4.1295,-4.1349,-4.1392,-4.1438,-4.1504,-4.1558,-4.1595,-4.165,-4.1681,-4.1684,-4.1694,-4.1692,-4.1698,-4.1632,-4.1616,-4.1691,-4.1691,-4.1691,-4.1691,-4.1691,-4.1691,-4.094,-4.0979,-4.1028,-4.1083,-4.1119,-4.116,-4.1201,-4.1231,-4.128,-4.134,-4.1352,-4.1413,-4.1458,-4.1533,-4.1562,-4.1609,-4.1601,-4.1617,-4.1622,-4.1625,-4.1627,-4.1527,-4.1619,-4.1619,-4.1619,-4.1619,-4.1619,0,-4.0885,-4.0898,-4.0948,-4.1004,-4.1045,-4.109,-4.1133,-4.1159,-4.1191,-4.123,-4.1288,-4.1324,-4.1395,-4.145,-4.1505,-4.1532,-4.1536,-4.1538,-4.155,-4.1545,-4.1534,-4.1541,-4.1431,-4.1536,-4.1535,-4.1534,-4.1534,-4.1534,-4.0803,-4.0848,-4.0908,-4.094,-4.0969,-4.1021,-4.1055,-4.1081,-4.1116,-4.1173,-4.1206,-4.1262,-4.1309,-4.1397,-4.1429,-4.1482,-4.1484,-4.1522,-4.1492,-4.1486,-4.1485,-4.1482,-4.1486,-4.1527,-4.1528,-4.1529,-4.1529,0,-4.0756,-4.0786,-4.0861,-4.0915,-4.093,-4.0975,-4.1021,-4.1061,-4.1085,-4.1144,-4.1159,-4.1197,-4.1252,-4.1279,-4.1347,-4.136,-4.1432,-4.1433,-4.1417,-4.1418,-4.1455,-4.1451,-4.1569,-4.1586,-4.1496,-4.1497,-4.1498,0,-4.0698,-4.0755,-4.0797,-4.0839,-4.0903,-4.0927,-4.0989,-4.1016,-4.1056,-4.1103,-4.1112,-4.1155,-4.1183,-4.1229,-4.1248,-4.1311,-4.1324,-4.1337,-4.1341,-4.1337,-4.1335,-4.1355,-4.135,-4.1349,-4.1348,-4.1348,-4.1347,0,-4.062,-4.0709,-4.0777,-4.0802,-4.0866,-4.0897,-4.0924,-4.0969,-4.1002,-4.1049,-4.1071,-4.1124,-4.1153,-4.1193,-4.1216,-4.1195,-4.1295,-4.127,-4.1308,-4.1308,-4.1328,-4.1327,-4.1425,-4.1347,-4.1346,-4.1346,-4.1346,0,-4.0578,-4.0627,-4.0721,-4.0774,-4.0796,-4.084,-4.0895,-4.0939,-4.0986,-4.1,-4.1037,-4.1047,-4.1105,-4.1078,-4.1159,-4.1125,-4.1152,-4.117,-4.1173,-4.118,-4.1149,-4.1201,-4.1292,-4.1303,-4.1186,-4.1185,-4.1184,0,-4.048,-4.0583,-4.0605,-4.0693,-4.0745,-4.0752,-4.0802,-4.0843,-4.0867,-4.0913,-4.0939,-4.0991,-4.0977,-4.0997,-4.1033,-4.1061,-4.1106,-4.1056,-4.112,-4.1122,-4.1108,-4.1192,-4.1199,-4.1269,-4.1167,-4.1169,-4.117,0,-4.0408,-4.0486,-4.05,-4.0529,-4.0589,-4.0631,-4.0688,-4.0746,-4.0775,-4.082,-4.0868,-4.0942,-4.0934,-4.0967,-4.098,-4.1016,-4.1076,-4.1003,-4.1004,-4.1015,-4.1161,-4.1167,-4.1179,-4.1077,-4.1079,-4.108,-4.1157,0,-4.0337,-4.0393,-4.0433,-4.0498,-4.0535,-4.0592,-4.0622,-4.0657,-4.0667,-4.069,-4.0761,-4.0801,-4.0858,-4.0879,-4.0888,-4.0962,-4.0954,-4.0945,-4.0921,-4.0976,-4.1002,-4.1012,-4.088,-4.088,-4.0879,-4.0879,0,0,-4.0236,-4.0316,-4.0339,-4.0395,-4.0428,-4.0436,-4.0494,-4.0526,-4.0592,-4.0614,-4.0601,-4.071,-4.0743,-4.0825,-4.0845,-4.0868,-4.0884,-4.0863,-4.095,-4.0957,-4.0965,-4.0992,-4.1002,-4.0878,-4.0878,-4.0878,-4.0877,0,-4.0216,-4.0252,-4.031,-4.0345,-4.0398,-4.0421,-4.0435,-4.0488,-4.0506,-4.0576,-4.058,-4.0625,-4.0712,-4.0746,-4.0775,-4.0855,-4.0854,-4.087,-4.0903,-4.0944,-4.0952,-4.096,-4.0988,-4.0998,-4.0876,-4.0876,-4.0876,0,-4.0151,-4.0191,-4.0222,-4.0298,-4.0333,-4.0385,-4.0368,-4.0423,-4.0462,-4.0466,-4.0534,-4.0561,-4.0609,-4.0683,-4.0717,-4.0706,-4.0826,-4.0793,-4.0797,-4.0801,-4.0842,-4.0852,-4.0861,-4.0743,-4.0743,-4.0742,0,0,-4.0129,-4.0181,-4.0232,-4.0296,-4.0318,-4.0353,-4.0383,-4.0396,-4.044,-4.0458,-4.0491,-4.0533,-4.0584,-4.0617,-4.0665,-4.0743,-4.0754,-4.0775,-4.0782,-4.0787,-4.0794,-4.0836,-4.0846,-4.074,-4.074,-4.074,0,0,-4.0119,-4.0181,-4.0183,-4.0261,-4.0304,-4.0357,-4.0395,-4.0398,-4.0445,-4.0442,-4.0464,-4.0476,-4.0546,-4.0571,-4.0539,-4.0657,-4.0633,-4.0641,-4.0638,-4.0647,-4.0653,-4.0645,-4.0525,0,0,0,0,0,-4.0115,-4.0173,-4.0174,-4.0192,-4.0288,-4.0357,-4.0369,-4.039,-4.0372,-4.0401,-4.043,-4.0428,-4.0558,-4.053,-4.0546,-4.0582,-4.0712,-4.0717,-4.0721,-4.0736,-4.0744,-4.0751,0,0,0,0,0,0,-4.0122,-4.0144,-4.0173,-4.0228,-4.025,-4.0355,-4.033,-4.0337,-4.0369,-4.0368,-4.0422,-4.0429,-4.0447,-4.0523,-4.0537,-4.0571,-4.052,-4.0714,-4.0718,-4.0722,-4.0739,-4.0746,-4.0752,0,0,0,0,0,-4.0128,-4.0145,-4.0293,-4.0228,-4.0246,-4.0288,-4.0327,-4.0333,-4.0359,-4.0403,-4.041,-4.0372,-4.0448,-4.0462,-4.0532,-4.0564,-4.051,-4.0516,-4.0716,-4.072,-4.0723,-4.0742,0,0,0,0,0,0,-4.0132,-4.0151,-4.0298,-4.0304,-4.0207,-4.0283,-4.0295,-4.033,-4.0392,-4.04,-4.0353,-4.0351,-4.0449,-4.0459,-4.047,-4.056,-4.0502,-4.0508,-4.0511,-4.0719,-4.0721,-4.0724,0,0,0,0,0,0,-4.0141,-4.0156,-4.0301,-4.0274,-4.0278,-4.0277,-4.0289,-4.0351,-4.0393,-4.0339,-4.0339,-4.0352,-4.0433,-4.0458,-4.0466,-4.0562,-4.0496,-4.0501,-4.0505,-4.0507,-4.0721,-4.0723,0,0,0,0,0,0,-4.0148,-4.0161,-4.0273,-4.0275,-4.0278,-4.0352,-4.0333,-4.0429,-4.0371,-4.0336,-4.0366,-4.0364,-4.0432,-4.044,-4.0464,-4.0556,-4.0561,-4.0496,-4.05,-4.0502,-4.0504,0,0,0,0,0,0,0,-4.0153,-4.0064,-4.0259,-4.0276,-4.0279,-4.0364,-4.0366,-4.0367,-4.0371,-4.0369,-4.0367,-4.0365,-4.0466,-4.0472,-4.0478,-4.0552,0,0,-4.0496,-4.0498,0,0,0,0,0,0,0,0,-4.0059,-4.0063,-4.026,-4.0261,-4.0262,-4.0364,-4.0365,-4.0367,-4.037,-4.0369,-4.0367,-4.0366,-4.0468,-4.0473,-4.0477,0,0,0,0,0,0,0,0,0,0,0,0,0,0,0,-4.026,-4.0261,0,-4.0364,-4.0365,-4.0367,-4.037,-4.0369,-4.0367,-4.0366,-4.0469,-4.0473,-4.0477,0,0,0,0,0,0,0,0,0,0,0,0,0,0,0,0,0,0,0,0,0,0,0,0,0,0,0,0,0,0,0,0,0,0,0,0,0,0,0,0,0,0,0,0,0,0,0,0,0,0,0,0,0,0,0,0,0,0,0,0,0,0,0,0,0,0,0,0,0]}]]]